Location: ??????????
(54.8537°N, 38.8755°E)
Time: 23:22:49
(UTC+00:00)

Tiros 1 - Pass Details

Date: 14 September 2024
Orbit: 623 x 654 km, 48.4° (Epoch: 09 October)

Event Time Altitude Azimuth Distance (km) Brightness Sun altitude
Rises 14:30:35 0° 232° (SW) 2,896 11.7 9.6°
Reaches altitude 10° 14:33:06 10° 221° (SW) 1,994 10.6 9.2°
Maximum altitude 14:37:03 29° 162° (SSE) 1,160 8.5 8.7°
Drops below altitude 10° 14:41:01 10° 103° (ESE) 2,011 9.1 8.1°
Sets 14:43:34 0° 92° (E) 2,926 9.8 7.7°
